{"data":{"norad_id":62707,"intl_designator":"2025-009DC","name":"ICEYE-X44","alt_names":[],"object_type":"PAYLOAD","status":"ACTIVE","operator":null,"country":"UAE","launch_date":"2025-01-14","launch_site_code":"AFWTR","launch_vehicle":null,"mission":null,"orbit_class":"UNKNOWN","rcs_meters":null,"size_class":null,"mass_kg":null,"dimensions":null,"purposes":[],"wikipedia_slug":null,"has_3d_model":false,"image_url":null,"decayed_at":null,"tle_current":{"epoch":"2026-05-25T03:25:10.310016Z","epoch_age_seconds":76893,"freshness":"FRESH","line1":"1 62707U 25009DC  26145.14248044  .00002640  00000+0  24141-3 0  9999","line2":"2 62707  97.7052 224.6356 0001647 153.7558 206.3746 14.95852249 96499","mean_motion":14.95852249,"eccentricity":0.0001647,"inclination_deg":97.7052,"raan_deg":224.6356,"arg_perigee_deg":153.7558,"mean_anomaly_deg":206.3746,"bstar":0.00024141,"rev_number":9649,"period_min":96.266192129782,"perigee_km":578.58274563132,"apogee_km":580.87466659492,"semimajor_km":6957.8657061131,"source":"CELESTRAK","updated_at":"2026-05-25T13:38:03.206247Z"}}}